Back to catalog

COSMOS 970 DEB

AliveLEO
NORAD 64965·DEBRIS·🇷🇺 Russia

Launched Dec 21, 1977 from Baikonur Cosmodrome

Loading…

Next Passes (next 24 hours)

TLE

FreshSource: Space-Track

Epoch: Sep 14, 2026, 08:02 UTC

1 64965U 77121CA  26257.33490153  .00000457  00000-0  42963-3 0  9991
2 64965  65.8149 127.1916 0107788  19.8842 340.6379 13.88402779114608

Track COSMOS 970 DEB in real time with AllMySat

Download on the App Store